EW5461 Weather Reports


Display with metric or nautical units.
time (UTC)temp
F
wind
direction
speed
MPH
gust
MPH
rain 1hr
in
rain 24hr
in
rain mn
in
humidity
%
barometer
mb
20260901174538 97 211 2.0 10.0 0.00 0.00 0.00 47 1014.0
20260901173039 96 157 2.0 7.0 0.00 0.00 0.00 46 1014.3
20260901171546 95 158 3.0 7.0 0.00 0.00 0.00 48 1014.5
20260901170041 94 90 1.0 9.0 0.00 0.00 0.00 49 1014.7
20260901164524 94 21 0.0 5.0 0.00 0.00 0.00 50 1014.9
20260901163027 91 166 4.0 9.0 0.00 0.00 0.00 53 1015.0
20260901161518 91 140 5.0 8.0 0.00 0.00 0.00 53 1015.1
20260901160015 90 237 3.0 8.0 0.00 0.00 0.00 55 1015.0
20260901154514 89 229 3.0 9.0 0.00 0.00 0.00 57 1015.0
20260901153012 89 180 2.0 8.0 0.00 0.00 0.00 58 1015.0
20260901151508 88 172 3.0 8.0 0.00 0.00 0.00 60 1015.0
20260901150008 87 171 4.0 8.0 0.00 0.00 0.00 61 1015.1
20260901144506 86 193 5.0 10.0 0.00 0.00 0.00 63 1015.1
20260901143006 86 178 2.0 5.0 0.00 0.00 0.00 63 1015.2
20260901141505 85 209 2.0 7.0 0.00 0.00 0.00 64 1015.2
20260901140006 84 146 1.0 6.0 0.00 0.00 0.00 65 1015.3
20260901134504 83 178 0.0 6.0 0.00 0.00 0.00 67 1015.2
20260901133105 81 134 0.0 3.0 0.00 0.00 0.00 69 1015.0
20260901131559 80 134 0.0 2.0 0.00 0.00 0.00 70 1014.9
20260901130106 80 163 0.0 1.0 0.00 0.00 0.00 71 1014.8
20260901124556 79 163 0.0 2.0 0.00 0.00 0.00 71 1014.5
20260901123054 79 163 0.0 2.0 0.00 0.00 0.00 70 1014.4
20260901121558 79 163 0.0 0.0 0.00 0.00 0.00 70 1014.3
20260901114548 80 163 1.0 6.0 0.00 0.00 0.00 69 1014.2
20260901113047 80 163 2.0 4.0 0.00 0.00 0.00 69 1014.1
20260901111551 81 163 0.0 5.0 0.00 0.00 0.00 68 1014.0
20260901110043 81 163 0.0 5.0 0.00 0.00 0.00 68 1013.9
20260901104541 81 153 1.0 4.0 0.00 0.00 0.00 68 1013.8
20260901103042 82 196 2.0 4.0 0.00 0.00 0.00 67 1013.9
20260901101540 82 164 1.0 9.0 0.00 0.00 0.00 67 1013.7
20260901100038 82 164 2.0 7.0 0.00 0.00 0.00 66 1013.7
20260901094536 82 165 1.0 8.0 0.00 0.00 0.00 65 1013.8
20260901093033 83 186 3.0 7.0 0.00 0.00 0.00 64 1014.0
20260901091533 83 128 3.0 8.0 0.00 0.00 0.00 64 1014.1
20260901090032 83 172 5.0 8.0 0.00 0.00 0.00 62 1013.9
20260901084529 84 148 4.0 11.0 0.00 0.00 0.00 61 1013.8
20260901083028 84 153 4.0 8.0 0.00 0.00 0.00 59 1013.7
20260901081525 84 180 4.0 8.0 0.00 0.00 0.00 57 1013.8
20260901080023 84 130 2.0 9.0 0.00 0.00 0.00 55 1013.6
20260901074522 84 164 1.0 5.0 0.00 0.00 0.00 54 1013.5
20260901073020 84 112 1.0 4.0 0.00 0.00 0.00 53 1013.5
20260901071519 84 87 0.0 0.0 0.00 0.00 0.00 52 1013.5
20260901070017 84 87 0.0 1.0 0.00 0.00 0.00 51 1013.4
20260901064515 85 87 0.0 2.0 0.00 0.00 0.00 50 1013.3
20260901063019 85 87 0.0 3.0 0.00 0.00 0.00 50 1013.3
20260901061509 85 69 0.0 2.0 0.00 0.00 0.00 49 1013.0
20260901060025 85 202 0.0 0.0 0.00 0.00 0.00 49 1013.0
20260901054505 85 202 0.0 0.0 0.00 0.00 0.00 48 1012.9
20260901053005 86 202 0.0 1.0 0.00 0.00 0.00 48 1012.7
20260901051607 87 202 0.0 2.0 0.00 0.00 0.00 47 1012.6
20260901050057 87 202 0.0 2.0 0.00 0.00 0.00 46 1012.5
20260901044604 88 202 0.0 1.0 0.00 0.00 0.00 45 1012.4
20260901043056 88 205 0.0 3.0 0.00 0.00 0.00 45 1012.4
20260901041617 88 105 0.0 2.0 0.00 0.00 0.00 45 1012.4
20260901040132 89 99 0.0 3.0 0.00 0.00 0.00 44 1012.4
20260901034553 89 101 0.0 3.0 0.00 0.00 0.00 44 1012.4
20260901033053 89 105 0.0 0.0 0.00 0.00 0.00 45 1012.4
20260901031557 90 129 0.0 0.0 0.00 0.00 0.00 44 1012.3
20260901030055 90 129 0.0 0.0 0.00 0.00 0.00 44 1012.3
20260901024554 90 129 0.0 1.0 0.00 0.00 0.00 45 1012.1
20260901023057 91 129 0.0 0.0 0.00 0.00 0.00 44 1011.9
20260901021550 91 129 0.0 1.0 0.00 0.00 0.00 43 1011.8
20260901020051 92 129 0.0 1.0 0.00 0.00 0.00 42 1011.6
20260901014549 92 129 0.0 1.0 0.00 0.00 0.00 41 1011.4
20260901013055 93 88 0.0 2.0 0.00 0.00 0.00 41 1011.2
20260901011548 94 90 0.0 3.0 0.00 0.00 0.00 40 1011.2
20260901004548 96 86 1.0 6.0 0.00 0.00 0.00 38 1011.1
20260901003047 97 81 1.0 5.0 0.00 0.00 0.00 37 1011.0
20260901001547 98 85 0.0 5.0 0.00 0.00 0.00 37 1011.0
20260901000046 98 205 1.0 5.0 0.00 0.00 0.00 36 1011.1
20260831234545 100 128 2.0 7.0 0.00 0.00 0.00 34 1011.0
20260831233048 100 32 1.0 10.0 0.00 0.00 0.00 33 1011.0
20260831231544 101 51 2.0 8.0 0.00 0.00 0.00 33 1010.9
20260831230053 100 11 2.0 8.0 0.00 0.00 0.00 34 1011.0
20260831224542 99 202 7.0 14.0 0.00 0.00 0.00 33 1011.0
20260831223041 99 155 5.0 10.0 0.00 0.00 0.00 33 1011.2
20260831221545 98 179 4.0 16.0 0.00 0.00 0.00 35 1011.3
20260831220038 98 166 3.0 12.0 0.00 0.00 0.00 36 1011.3
20260831214542 100 174 7.0 16.0 0.00 0.00 0.00 34 1011.5
20260831213038 101 165 3.0 9.0 0.00 0.00 0.00 33 1011.7
20260831211534 103 169 2.0 8.0 0.00 0.00 0.00 31 1011.7
20260831210026 101 139 2.0 8.0 0.00 0.00 0.00 34 1011.9
20260831204525 100 126 7.0 12.0 0.00 0.00 0.00 32 1012.1
20260831203023 100 179 5.0 13.0 0.00 0.00 0.00 34 1012.4
20260831201525 99 171 5.0 13.0 0.00 0.00 0.00 34 1012.6
20260831200021 99 201 3.0 8.0 0.00 0.00 0.00 36 1012.7
20260831194519 101 109 3.0 11.0 0.00 0.00 0.00 33 1012.9
20260831193027 99 114 4.0 15.0 0.00 0.00 0.00 36 1013.0
20260831191516 98 161 2.0 9.0 0.00 0.00 0.00 36 1013.2
20260831190016 97 117 2.0 8.0 0.00 0.00 0.00 38 1013.3
20260831184510 96 140 5.0 12.0 0.00 0.00 0.00 39 1013.5
20260831183008 97 115 5.0 12.0 0.00 0.00 0.00 38 1013.7
20260831181507 97 213 4.0 10.0 0.00 0.00 0.00 39 1013.9
20260831180004 96 142 3.0 11.0 0.00 0.00 0.00 40 1014.2